User: anonymous   Login
Location: Oshawa
(43.9000°N, 78.8670°W)
Time: 09:48:52
(UTC-05:00)
Language:

Iridium 98 - Orbit

View from above orbital plane
View from above orbital plane
View from above satellite
View from above satellite

Ground track
Ground track

The orbit data is extracted from the following two-line orbital elements,

1 27451U 02031B   17054.50766552 -.00000023  00000-0 -15185-4 0  9999
2 27451  86.3916  69.7439 0002063  90.0842  71.8923 14.34216428775011
Epoch (UTC): 23 February 2017 12:11:02
Eccentricity: 0.0002063
inclination: 86.3916°
perigee height: 776 km
apogee height: 779 km
right ascension of ascending node: 69.7439°
argument of perigee: 90.0842°
revolutions per day: 14.34216428
mean anomaly at epoch: 71.8923°
orbit number at epoch: 77501

The dashed part of the orbit path shows where the satellite is in the earth's shadow,  

DLR